Bend, OR

5:57 PM PST on February 20, 2017 (GMT -0800)
Bend Municipal

Weather History for KBDN - March, 2013

Change the Weather History Date:

Saturday, March 9, 2013

  Actual Average (KRDM) Record (KRDM)
Temperature  
Mean Temperature 38 °F -  
Max Temperature 53 °F 50 °F 70 °F (2005)
Min Temperature 23 °F 26 °F 13 °F (2009)
Degree Days  
Heating Degree Days 27    
Moisture  
Dew Point 8 °F    
Average Humidity 39    
Maximum Humidity 69    
Minimum Humidity 8    
Precipitation  
Precipitation 0.00 in - - ()
Sea Level Pressure  
Sea Level Pressure 30.32 in    
Wind  
Wind Speed 4 mph (WSW)    
Max Wind Speed 10 mph    
Max Gust Speed -    
Visibility 10 miles    
Events      
Averages and records for this station are not official NWS values.
T = Trace of Precipitation, MM = Missing Value Source: NWS Daily Summary

Daily Weather History Graph

Daily Weather History Graph

Search for Another Location

Airport or City:

Trip Planner

Search our weather history database for the weather conditions in past years. The results will help you decide how hot, cold, wet, or windy it might be!

Date:

Astronomy

Mar. 09, 2013 Rise Set
Actual Time 6:27 AM PST 6:03 PM PST
Civil Twilight 5:58 AM PST 6:32 PM PST
Nautical Twilight 5:25 AM PST 7:06 PM PST
Astronomical Twilight 4:51 AM PST 7:40 PM PST
Moon 4:58 AM PST (3/9) 4:09 PM PST (3/9)
Length of Visible Light 12h 34m
Length of Day
11h 36m
Waning Crescent, 5% of the Moon is Illuminated
Mar 9
Waning Crescent
Mar 11
New
Mar 19
First Quarter
Mar 27
Full
Apr 2
Last Quarter

Hourly Weather History & Observations

Time (PST) Temp. Windchill Dew Point Humidity Pressure Visibility Wind Dir Wind Speed Gust Speed Precip Events Conditions
12:15 AM 24.8 °F - 15.8 °F 69% 30.15 in 10.0 mi Calm Calm - N/A   Clear
12:35 AM 24.8 °F - 15.8 °F 69% 30.16 in 10.0 mi Calm Calm - N/A   Clear
12:55 AM 24.8 °F - 15.8 °F 69% 30.16 in 10.0 mi Calm Calm - N/A   Clear
1:15 AM 24.8 °F - 15.8 °F 69% 30.17 in 10.0 mi Calm Calm - N/A   Clear
1:35 AM 24.8 °F 17.9 °F 15.8 °F 69% 30.17 in 10.0 mi SSW 5.8 mph - N/A   Clear
1:55 AM 24.8 °F 19.1 °F 14.0 °F 64% 30.18 in 10.0 mi SSW 4.6 mph - N/A   Clear
2:15 AM 23.0 °F 18.4 °F 14.0 °F 68% 30.18 in 10.0 mi SSW 3.5 mph - N/A   Clear
2:35 AM 23.0 °F 17.0 °F 14.0 °F 68% 30.18 in 10.0 mi SSW 4.6 mph - N/A   Clear
2:55 AM 24.8 °F 17.9 °F 14.0 °F 64% 30.18 in 10.0 mi SSW 5.8 mph - N/A   Clear
3:15 AM 24.8 °F 19.1 °F 14.0 °F 64% 30.19 in 10.0 mi South 4.6 mph - N/A   Clear
3:55 AM 24.8 °F 17.9 °F 14.0 °F 64% 30.20 in 10.0 mi SSW 5.8 mph - N/A   Clear
4:15 AM 24.8 °F 19.1 °F 14.0 °F 64% 30.21 in 10.0 mi SSW 4.6 mph - N/A   Clear
4:35 AM 24.8 °F 20.5 °F 14.0 °F 64% 30.23 in 10.0 mi SSW 3.5 mph - N/A   Clear
4:55 AM 24.8 °F 17.9 °F 14.0 °F 64% 30.24 in 10.0 mi SSW 5.8 mph - N/A   Clear
5:15 AM 24.8 °F 16.9 °F 14.0 °F 64% 30.25 in 10.0 mi SSW 6.9 mph - N/A   Clear
5:35 AM 24.8 °F - 14.0 °F 64% 30.25 in 10.0 mi Calm Calm - N/A   Clear
5:55 AM 24.8 °F 16.9 °F 14.0 °F 64% 30.26 in 10.0 mi SW 6.9 mph - N/A   Clear
6:15 AM 24.8 °F 17.9 °F 14.0 °F 64% 30.27 in 10.0 mi SW 5.8 mph - N/A   Clear
6:35 AM 24.8 °F 17.9 °F 14.0 °F 64% 30.28 in 10.0 mi SW 5.8 mph - N/A   Clear
6:55 AM 24.8 °F 16.1 °F 15.8 °F 69% 30.29 in 10.0 mi SW 8.1 mph - N/A   Clear
7:15 AM 26.6 °F 19.1 °F 15.8 °F 64% 30.29 in 10.0 mi SSW 6.9 mph - N/A   Clear
7:35 AM 28.4 °F 19.7 °F 15.8 °F 59% 30.29 in 10.0 mi SW 9.2 mph - N/A   Clear
7:55 AM 32.0 °F 24.8 °F 17.6 °F 55% 30.30 in 10.0 mi SW 8.1 mph - N/A   Clear
8:15 AM 32.0 °F 26.4 °F 17.6 °F 55% 30.30 in 10.0 mi SW 5.8 mph - N/A   Clear
8:35 AM 35.6 °F 29.9 °F 17.6 °F 48% 30.31 in 10.0 mi SW 6.9 mph - N/A   Clear
8:55 AM 37.4 °F 32.1 °F 17.6 °F 45% 30.31 in 10.0 mi SW 6.9 mph - N/A   Clear
9:15 AM 37.4 °F 32.1 °F 14.0 °F 38% 30.32 in 10.0 mi SW 6.9 mph - N/A   Clear
9:35 AM 39.2 °F 34.2 °F 10.4 °F 31% 30.32 in 10.0 mi WSW 6.9 mph - N/A   Clear
9:55 AM 41.0 °F 37.1 °F 10.4 °F 29% 30.33 in 10.0 mi West 5.8 mph - N/A   Clear
10:15 AM 41.0 °F 39.0 °F 6.8 °F 24% 30.33 in 10.0 mi WSW 3.5 mph - N/A   Clear
10:35 AM 42.8 °F 39.3 °F 5.0 °F 21% 30.34 in 10.0 mi West 5.8 mph - N/A   Clear
10:55 AM 44.6 °F - 3.2 °F 18% 30.34 in 10.0 mi Calm Calm - N/A   Clear
11:15 AM 44.6 °F 41.4 °F 5.0 °F 20% 30.33 in 10.0 mi West 5.8 mph - N/A   Clear
11:35 AM 44.6 °F 42.2 °F 3.2 °F 18% 30.33 in 10.0 mi WSW 4.6 mph - N/A   Clear
11:55 AM 46.4 °F - 1.4 °F 16% 30.35 in 10.0 mi Calm Calm - N/A   Clear
12:15 PM 46.4 °F 42.4 °F -0.4 °F 14% 30.35 in 10.0 mi NNW 8.1 mph - N/A   Clear
12:35 PM 48.2 °F - -0.4 °F 13% 30.35 in 10.0 mi NNW 4.6 mph - N/A   Clear
12:55 PM 48.2 °F - -4.0 °F 11% 30.34 in 10.0 mi NNE 5.8 mph - N/A   Clear
1:15 PM 50.0 °F - -4.0 °F 11% 30.34 in 10.0 mi NE 5.8 mph - N/A   Clear
1:35 PM 50.0 °F - -4.0 °F 11% 30.34 in 10.0 mi NW 8.1 mph - N/A   Clear
1:55 PM 50.0 °F - -5.8 °F 10% 30.34 in 10.0 mi NE 3.5 mph - N/A   Clear
2:15 PM 50.0 °F - -4.0 °F 11% 30.34 in 10.0 mi WNW 5.8 mph - N/A   Clear
2:35 PM 51.8 °F - -4.0 °F 10% 30.34 in 10.0 mi Calm Calm - N/A   Clear
2:55 PM 51.8 °F - -5.8 °F 9% 30.35 in 10.0 mi Calm Calm - N/A   Clear
3:15 PM 51.8 °F - -5.8 °F 9% 30.35 in 10.0 mi NE 4.6 mph - N/A   Clear
3:35 PM 53.6 °F - -4.0 °F 9% 30.35 in 10.0 mi NNW 5.8 mph - N/A   Clear
3:55 PM 53.6 °F - -5.8 °F 9% 30.35 in 10.0 mi NNW 4.6 mph - N/A   Clear
4:15 PM 51.8 °F - -7.6 °F 8% 30.35 in 10.0 mi ENE 3.5 mph - N/A   Clear
4:35 PM 51.8 °F - -4.0 °F 10% 30.35 in 10.0 mi Calm Calm - N/A   Clear
4:55 PM 51.8 °F - -0.4 °F 12% 30.35 in 10.0 mi WNW 10.4 mph - N/A   Clear
5:15 PM 50.0 °F - -0.4 °F 13% 30.36 in 10.0 mi WNW 6.9 mph - N/A   Clear
5:35 PM 50.0 °F - 3.2 °F 15% 30.36 in 10.0 mi WNW 8.1 mph - N/A   Clear
5:55 PM 48.2 °F - 5.0 °F 17% 30.37 in 10.0 mi NW 4.6 mph - N/A   Clear
6:15 PM 46.4 °F - 6.8 °F 20% 30.37 in 10.0 mi Calm Calm - N/A   Clear
6:35 PM 41.0 °F 38.0 °F 8.6 °F 26% 30.38 in 10.0 mi WNW 4.6 mph - N/A   Clear
6:55 PM 39.2 °F 37.0 °F 8.6 °F 28% 30.39 in 10.0 mi West 3.5 mph - N/A   Clear
7:15 PM 37.4 °F - 10.4 °F 33% 30.40 in 10.0 mi Calm Calm - N/A   Clear
7:35 PM 33.8 °F - 10.4 °F 38% 30.40 in 10.0 mi Calm Calm - N/A   Clear
7:55 PM 32.0 °F - 12.2 °F 44% 30.40 in 10.0 mi Calm Calm - N/A   Clear
8:15 PM 32.0 °F 27.5 °F 12.2 °F 44% 30.39 in 10.0 mi SSW 4.6 mph - N/A   Clear
8:35 PM 32.0 °F 27.5 °F 12.2 °F 44% 30.40 in 10.0 mi SSW 4.6 mph - N/A   Clear
8:55 PM 33.8 °F 28.6 °F 10.4 °F 38% 30.40 in 10.0 mi SSW 5.8 mph - N/A   Clear
9:15 PM 32.0 °F 26.4 °F 10.4 °F 41% 30.41 in 10.0 mi SW 5.8 mph - N/A   Clear
9:35 PM 32.0 °F - 10.4 °F 41% 30.42 in 10.0 mi Calm Calm - N/A   Clear
9:55 PM 32.0 °F - 10.4 °F 41% 30.43 in 10.0 mi Calm Calm - N/A   Clear
10:15 PM 32.0 °F - 10.4 °F 41% 30.43 in 10.0 mi Calm Calm - N/A   Clear
10:35 PM 32.0 °F 25.6 °F 10.4 °F 41% 30.43 in 10.0 mi SW 6.9 mph - N/A   Clear
10:55 PM 32.0 °F 25.6 °F 10.4 °F 41% 30.43 in 10.0 mi South 6.9 mph - N/A   Clear
11:15 PM 32.0 °F 27.5 °F 12.2 °F 44% 30.43 in 10.0 mi SSW 4.6 mph - N/A   Clear
11:35 PM 32.0 °F - 10.4 °F 41% 30.44 in 10.0 mi Calm Calm - N/A   Clear
11:55 PM 32.0 °F 25.6 °F 12.2 °F 44% 30.43 in 10.0 mi SW 6.9 mph - N/A   Clear